Regional Weather Roundup
Issued by NWS

Home | Current Version | Previous Version | Text Only | Print | Product List | Glossary Off
Versions: 1 2 3 4 5 6 7 8 9 10 11 12 13 14 15 16 17 18 19 20 21 22 23 24 25 26 27 28 29 30 31 32 33 34 35 36 37 38 39 40 41 42 43 44 45 46 47 48 49 50

930
ASUS43 KFSD 041902
RWRSD

WEATHER ROUNDUP FOR SOUTH DAKOTA
NATIONAL WEATHER SERVICE SIOUX FALLS SD
100 PM CST SUN DEC 04 2016

NOTE: "FAIR" INDICATES FEW OR NO CLOUDS BELOW 12,000 FEET WITH NO
SIGNIFICANT WEATHER AND/OR OBSTRUCTIONS TO VISIBILITY.


SDZ001>005-009-010-012>017-042000-
NORTHWEST AND NORTH CENTRAL SOUTH DAKOTA

CITY           SKY/WX    TMP DP  RH WIND       PRES   REMARKS
BUFFALO          N/A     42  23  46 W17       29.67F
FAITH            N/A     37  28  70 SW10      29.77F
MOBRIDGE       SUNNY     35  23  61 W6        29.75F
$$

SDZ012>016-024>037-041>051-057-063-072>074-042000-
SOUTHWEST AND SOUTH CENTRAL SOUTH DAKOTA

CITY           SKY/WX    TMP DP  RH WIND       PRES   REMARKS
RAPID CTY ARPT SUNNY     47  14  26 SW9       29.78F
PIERRE         SUNNY     37  26  64 W10       29.81F
CUSTER         SUNNY     34   9  35 W6        29.75F WCI  29
ELLSWORTH AFB  SUNNY     46  16  29 VRB7      29.76F
PHILIP         SUNNY     43  27  53 SW13      29.82F
PINE RIDGE     SUNNY     39  19  44 SW3       29.84F
SPEARFISH      FAIR      41  12  30 W13G21    29.76F
WINNER         FAIR      47  25  42 W15       29.84F
$$

SDZ004>011-016>023-039-040-042000-
NORTHEAST SOUTH DAKOTA

CITY           SKY/WX    TMP DP  RH WIND       PRES   REMARKS
ABERDEEN       SUNNY     39  29  67 W15G23    29.76F
WATERTOWN      MOSUNNY   36  29  75 W20       29.75F
SISSETON         N/A     36  31  82 W20       29.73F
$$

SDZ017-020-022-023-036>040-048>070-042000-
SOUTHEAST SOUTH DAKOTA

CITY           SKY/WX    TMP DP  RH WIND       PRES   REMARKS
SIOUX FALLS    SUNNY     42  33  70 W12       29.83F
HURON          SUNNY     42  31  64 W13       29.81F
CHAMBERLAIN    SUNNY     43  31  61 W10       29.84F
MITCHELL       SUNNY     43  32  65 W13       29.84F
YANKTON        SUNNY     46  28  49 W14       29.85F
$$

ABBREVIATIONS USED IN REMARKS
   TC - TEMPERATURE IN CELSIUS
  WCI - WIND CHILL INDEX
   HX - HEAT INDEX
  VSB - VISIBILITY





USA.gov is the U.S. government's official web portal to all federal, state and local government web resources and services.